Tracking 27086 objects as of 22-Mar-2023
HD Live streaming from Space Station
objects crossing your sky now

ONEWEB-0644

Track ONEWEB-0644 now!
10-day predictions
ONEWEB-0644 is classified as:


NORAD ID: 55808
Int'l Code: 2023-029N
Perigee: 596.9 km
Apogee: 609.3 km
Inclination: 86.5 °
Period: 96.6 minutes
Semi major axis: 6974 km
RCS: Unknown
Launch date: March 9, 2023
Source: United Kingdom (UK)
Launch site: AIR FORCE EASTERN TEST RANGE (AFETR)
Your satellite tracking list
Your tracking list is empty




NASA's NSSDC Master Catalog

Two Line Element Set (TLE):
1 55808U 23029N   23081.32537483 -.00131625  00000-0 -13706-1 0  9999
2 55808  86.5147 193.8054 0008867 170.6872 189.4521 14.90638536  2556
Source of the keplerian elements: AFSPC